TimePDT,TemperatureF,Dew PointF,Humidity,Sea Level PressureIn,VisibilityMPH,Wind Direction,Wind SpeedMPH,Gust SpeedMPH,PrecipitationIn,Events,Conditions,WindDirDegrees,DateUTC
12:52 AM,59.0,21.9,24,29.87,10.0,ESE,8.1,-,N/A,,Clear,110,2012-11-01 07:52:00
1:52 AM,57.9,25.0,28,29.87,10.0,ESE,8.1,-,N/A,,Clear,110,2012-11-01 08:52:00
2:52 AM,57.0,25.0,29,29.86,10.0,Variable,3.5,-,N/A,,Clear,0,2012-11-01 09:52:00
3:52 AM,59.0,24.1,26,29.85,10.0,ENE,5.8,-,N/A,,Clear,60,2012-11-01 10:52:00
4:52 AM,57.9,26.1,30,29.85,10.0,East,10.4,-,N/A,,Clear,100,2012-11-01 11:52:00
5:52 AM,60.1,25.0,26,29.86,10.0,East,12.7,-,N/A,,Clear,100,2012-11-01 12:52:00
6:52 AM,57.0,26.1,30,29.88,10.0,ESE,10.4,-,N/A,,Clear,110,2012-11-01 13:52:00
7:52 AM,57.0,26.1,30,29.88,10.0,ESE,9.2,-,N/A,,Clear,110,2012-11-01 14:52:00
8:52 AM,60.1,26.1,27,29.89,10.0,ESE,15.0,-,N/A,,Clear,110,2012-11-01 15:52:00
9:52 AM,63.0,26.1,25,29.89,10.0,East,9.2,-,N/A,,Clear,90,2012-11-01 16:52:00
10:52 AM,66.9,27.0,22,29.88,10.0,ESE,10.4,-,N/A,,Clear,110,2012-11-01 17:52:00
11:52 AM,72.0,23.0,16,29.86,10.0,ESE,10.4,-,N/A,,Clear,110,2012-11-01 18:52:00
12:52 PM,77.0,16.0,10,29.82,10.0,South,17.3,26.5,N/A,,Clear,180,2012-11-01 19:52:00
1:52 PM,78.1,12.0,8,29.80,10.0,South,18.4,25.3,N/A,,Clear,180,2012-11-01 20:52:00
2:52 PM,75.9,10.0,8,29.79,10.0,South,20.7,27.6,N/A,,Clear,180,2012-11-01 21:52:00
3:52 PM,75.0,10.9,9,29.80,10.0,SSW,16.1,23.0,N/A,,Clear,200,2012-11-01 22:52:00
4:52 PM,73.0,10.9,9,29.81,10.0,SSW,8.1,19.6,N/A,,Clear,210,2012-11-01 23:52:00
5:52 PM,70.0,12.0,11,29.82,10.0,SSW,8.1,-,N/A,,Clear,200,2012-11-02 00:52:00
6:52 PM,64.0,12.9,14,29.85,10.0,NNE,5.8,-,N/A,,Clear,30,2012-11-02 01:52:00
7:52 PM,69.1,10.9,11,29.84,10.0,SE,4.6,-,N/A,,Clear,140,2012-11-02 02:52:00
8:52 PM,59.0,12.0,16,29.86,10.0,East,5.8,-,N/A,,Clear,100,2012-11-02 03:52:00
9:52 PM,57.0,12.9,18,29.87,10.0,ENE,3.5,-,N/A,,Clear,60,2012-11-02 04:52:00
10:52 PM,54.0,12.9,20,29.88,10.0,NE,5.8,-,N/A,,Clear,50,2012-11-02 05:52:00
11:52 PM,51.1,14.0,23,29.88,10.0,East,5.8,-,N/A,,Clear,100,2012-11-02 06:52:00